• In Österreich
  • Länderverzeichnis
  • Für 7 Tage
  • Wassertemperatur
  • Satellitenkarten
  • Wetterkarte
  • News
  • Widgets
  • user-avatar
    Anmelden

    Stündliche Wetter Kenmare

    Heute, 22 Januar, Montag

    Zeit Temperatur Niederschläge Wind Luftdruck Luftfeuchtigkeit
    00:00 +7°C° 0 mm 6 m/S 749 mmHg 88%
    01:00 +7°C° 0 mm 6 m/S 749 mmHg 88%
    02:00 +7°C° 0 mm 6 m/S 749 mmHg 88%
    03:00 +7°C° 0 mm 6 m/S 750 mmHg 88%
    04:00 +6°C° 0 mm 5 m/S 750 mmHg 89%
    05:00 +6°C° 0 mm 5 m/S 750 mmHg 90%
    06:00 +6°C° 0 mm 5 m/S 751 mmHg 90%
    07:00 +5°C° 0 mm 5 m/S 751 mmHg 90%
    08:00 +5°C° 0 mm 4 m/S 752 mmHg 90%
    09:00 +6°C° 0 mm 5 m/S 752 mmHg 86%
    10:00 +7°C° 0 mm 5 m/S 752 mmHg 81%
    11:00 +8°C° 0 mm 6 m/S 752 mmHg 77%
    12:00 +9°C° 0 mm 6 m/S 752 mmHg 79%
    13:00 +9°C° 0 mm 6 m/S 752 mmHg 80%
    14:00 +9°C° 0 mm 6 m/S 751 mmHg 81%
    15:00 +8°C° 0 mm 6 m/S 751 mmHg 85%
    16:00 +8°C° 0 mm 6 m/S 751 mmHg 90%
    17:00 +8°C° 0 mm 7 m/S 750 mmHg 94%
    18:00 +8°C° 0 mm 7 m/S 750 mmHg 94%
    19:00 +8°C° 0 mm 7 m/S 749 mmHg 93%
    20:00 +8°C° 0 mm 7 m/S 748 mmHg 93%
    21:00 +9°C° 0,1 mm 7 m/S 748 mmHg 94%
    22:00 +9°C° 0,1 mm 7 m/S 747 mmHg 95%
    23:00 +10°C° 0,1 mm 7 m/S 747 mmHg 96%

    Morgen, 23 Januar, Dienstag

    Zeit Temperatur Niederschläge Wind Luftdruck Luftfeuchtigkeit
    00:00 +10°C° 0,1 mm 8 m/S 746 mmHg 95%
    01:00 +10°C° 0,1 mm 8 m/S 746 mmHg 94%
    02:00 +10°C° 0,1 mm 8 m/S 746 mmHg 93%
    03:00 +10°C° 0,7 mm 9 m/S 745 mmHg 93%
    04:00 +10°C° 0,7 mm 9 m/S 745 mmHg 93%
    05:00 +9°C° 0,7 mm 10 m/S 745 mmHg 94%
    06:00 +10°C° 0,1 mm 9 m/S 745 mmHg 93%
    07:00 +8°C° 0,1 mm 9 m/S 745 mmHg 92%
    08:00 +7°C° 0,1 mm 8 m/S 745 mmHg 91%
    09:00 +9°C° 0,2 mm 8 m/S 746 mmHg 88%
    10:00 +8°C° 0,2 mm 9 m/S 746 mmHg 86%
    11:00 +8°C° 0,2 mm 10 m/S 746 mmHg 83%
    12:00 +8°C° 0,2 mm 9 m/S 746 mmHg 82%
    13:00 +8°C° 0,2 mm 9 m/S 746 mmHg 80%
    14:00 +8°C° 0,2 mm 9 m/S 746 mmHg 78%
    15:00 +9°C° 0,3 mm 8 m/S 745 mmHg 82%
    16:00 +7°C° 0,3 mm 8 m/S 745 mmHg 85%
    17:00 +8°C° 0,3 mm 7 m/S 744 mmHg 88%
    18:00 +7°C° 0,8 mm 9 m/S 743 mmHg 88%
    19:00 +8°C° 0,8 mm 11 m/S 741 mmHg 88%
    20:00 +8°C° 0,8 mm 13 m/S 740 mmHg 87%
    21:00 +8°C° 1 mm 14 m/S 739 mmHg 87%
    22:00 +8°C° 1 mm 15 m/S 738 mmHg 87%
    23:00 +7°C° 1 mm 17 m/S 738 mmHg 87%

    übermorgen, 24 Januar, Mittwoch

    Zeit Temperatur Niederschläge Wind Luftdruck Luftfeuchtigkeit
    00:00 +6°C° 0,6 mm 15 m/S 738 mmHg 81%
    01:00 +5°C° 0,6 mm 14 m/S 739 mmHg 76%
    02:00 +4°C° 0,6 mm 13 m/S 740 mmHg 71%
    03:00 +3°C° 0 mm 12 m/S 740 mmHg 73%
    04:00 +3°C° 0 mm 11 m/S 740 mmHg 75%
    05:00 +3°C° 0 mm 10 m/S 741 mmHg 77%
    06:00 +3°C° 0,1 mm 10 m/S 741 mmHg 77%
    07:00 +3°C° 0,1 mm 10 m/S 741 mmHg 77%
    08:00 +3°C° 0,1 mm 11 m/S 741 mmHg 77%
    09:00 +5°C° 0,4 mm 10 m/S 741 mmHg 77%
    10:00 +5°C° 0,4 mm 10 m/S 741 mmHg 77%
    11:00 +5°C° 0,4 mm 9 m/S 741 mmHg 77%
    12:00 +5°C° 0,4 mm 10 m/S 741 mmHg 75%
    13:00 +4°C° 0,4 mm 11 m/S 740 mmHg 73%
    14:00 +4°C° 0,4 mm 12 m/S 740 mmHg 70%
    15:00 +3°C° 0,3 mm 12 m/S 740 mmHg 71%
    16:00 +3°C° 0,3 mm 12 m/S 740 mmHg 72%
    17:00 +3°C° 0,3 mm 12 m/S 740 mmHg 74%
    18:00 +2°C° 0,3 mm 12 m/S 740 mmHg 74%
    19:00 +2°C° 0,3 mm 12 m/S 740 mmHg 74%
    20:00 +2°C° 0,3 mm 12 m/S 740 mmHg 74%
    21:00 +2°C° 0,3 mm 11 m/S 740 mmHg 75%
    22:00 +2°C° 0,3 mm 11 m/S 740 mmHg 76%
    23:00 +2°C° 0,3 mm 11 m/S 739 mmHg 77%

    25 Januar, Donnerstag

    Zeit Temperatur Niederschläge Wind Luftdruck Luftfeuchtigkeit
    00:00 +2°C° 0,4 mm 11 m/S 739 mmHg 76%
    01:00 +2°C° 0,4 mm 11 m/S 739 mmHg 76%
    02:00 +2°C° 0,4 mm 11 m/S 739 mmHg 76%
    03:00 +2°C° 0,2 mm 11 m/S 740 mmHg 76%
    04:00 +2°C° 0,2 mm 11 m/S 740 mmHg 76%
    05:00 +2°C° 0,2 mm 11 m/S 740 mmHg 77%
    06:00 +2°C° 0,2 mm 10 m/S 741 mmHg 77%
    07:00 +2°C° 0,2 mm 10 m/S 742 mmHg 78%
    08:00 +2°C° 0,2 mm 10 m/S 742 mmHg 78%
    09:00 +3°C° 0,4 mm 9 m/S 743 mmHg 76%
    10:00 +4°C° 0,4 mm 8 m/S 744 mmHg 74%
    11:00 +5°C° 0,4 mm 8 m/S 744 mmHg 71%
    12:00 +5°C° 0,1 mm 8 m/S 745 mmHg 71%
    13:00 +5°C° 0,1 mm 8 m/S 746 mmHg 71%
    14:00 +6°C° 0,1 mm 8 m/S 746 mmHg 72%
    15:00 +5°C° 0,1 mm 8 m/S 748 mmHg 74%
    16:00 +3°C° 0,1 mm 9 m/S 749 mmHg 77%
    17:00 +2°C° 0,1 mm 9 m/S 751 mmHg 80%
    18:00 +2°C° 0 mm 9 m/S 752 mmHg 79%
    19:00 +2°C° 0 mm 9 m/S 754 mmHg 78%
    20:00 +2°C° 0 mm 9 m/S 755 mmHg 77%
    21:00 +1°C° 0 mm 9 m/S 756 mmHg 76%
    22:00 +1°C° 0 mm 8 m/S 757 mmHg 76%
    23:00 +1°C° 0 mm 8 m/S 758 mmHg 75%

    26 Januar, Freitag

    Zeit Temperatur Niederschläge Wind Luftdruck Luftfeuchtigkeit
    00:00 +2°C° 0 mm 7 m/S 759 mmHg 75%
    01:00 +2°C° 0 mm 7 m/S 759 mmHg 75%
    02:00 +2°C° 0 mm 6 m/S 760 mmHg 74%
    03:00 +2°C° 0 mm 6 m/S 760 mmHg 78%
    04:00 +2°C° 0 mm 6 m/S 761 mmHg 81%
    05:00 +2°C° 0 mm 5 m/S 761 mmHg 84%
    06:00 +2°C° 0,1 mm 5 m/S 762 mmHg 83%
    07:00 +3°C° 0,1 mm 5 m/S 762 mmHg 83%
    08:00 +3°C° 0,1 mm 5 m/S 762 mmHg 83%
    09:00 +5°C° 0 mm 5 m/S 762 mmHg 82%
    10:00 +6°C° 0 mm 5 m/S 762 mmHg 80%
    11:00 +6°C° 0 mm 5 m/S 762 mmHg 78%
    12:00 +6°C° 0,2 mm 5 m/S 762 mmHg 82%
    13:00 +5°C° 0,2 mm 6 m/S 762 mmHg 85%
    14:00 +5°C° 0,2 mm 6 m/S 762 mmHg 89%
    15:00 +5°C° 0,4 mm 6 m/S 761 mmHg 91%
    16:00 +5°C° 0,4 mm 6 m/S 761 mmHg 93%
    17:00 +7°C° 0,4 mm 6 m/S 761 mmHg 96%
    18:00 +7°C° 0,2 mm 6 m/S 761 mmHg 96%
    19:00 +8°C° 0,2 mm 6 m/S 761 mmHg 96%
    20:00 +8°C° 0,2 mm 6 m/S 761 mmHg 97%
    21:00 +9°C° 0,4 mm 7 m/S 761 mmHg 97%
    22:00 +9°C° 0,4 mm 7 m/S 761 mmHg 96%
    23:00 +9°C° 0,4 mm 8 m/S 761 mmHg 96%

    27 Januar, Samstag

    Zeit Temperatur Niederschläge Wind Luftdruck Luftfeuchtigkeit
    00:00 +9°C° 0,1 mm 7 m/S 762 mmHg 96%
    01:00 +9°C° 0,1 mm 7 m/S 762 mmHg 95%
    02:00 +9°C° 0,1 mm 7 m/S 762 mmHg 95%
    03:00 +9°C° 0 mm 7 m/S 762 mmHg 94%
    04:00 +9°C° 0 mm 7 m/S 762 mmHg 94%
    05:00 +9°C° 0 mm 7 m/S 762 mmHg 93%
    06:00 +9°C° 0 mm 7 m/S 763 mmHg 93%
    07:00 +9°C° 0 mm 7 m/S 763 mmHg 93%
    08:00 +9°C° 0 mm 7 m/S 763 mmHg 93%
    09:00 +9°C° 0 mm 7 m/S 763 mmHg 93%
    10:00 +10°C° 0 mm 7 m/S 763 mmHg 92%
    11:00 +10°C° 0 mm 8 m/S 764 mmHg 91%
    12:00 +10°C° 0 mm 8 m/S 764 mmHg 92%
    13:00 +10°C° 0 mm 7 m/S 764 mmHg 93%
    14:00 +10°C° 0 mm 7 m/S 764 mmHg 93%
    15:00 +10°C° 0 mm 7 m/S 764 mmHg 94%
    16:00 +10°C° 0 mm 6 m/S 764 mmHg 94%
    17:00 +10°C° 0 mm 6 m/S 765 mmHg 95%
    18:00 +9°C° 0 mm 6 m/S 765 mmHg 95%
    19:00 +9°C° 0 mm 6 m/S 765 mmHg 95%
    20:00 +9°C° 0 mm 5 m/S 765 mmHg 95%
    21:00 +9°C° 0 mm 6 m/S 766 mmHg 95%
    22:00 +9°C° 0 mm 6 m/S 766 mmHg 96%
    23:00 +9°C° 0 mm 6 m/S 766 mmHg 96%
    Mehr zeigen